Weather History for Vinton, IA

Change the Weather History Date:

Tuesday, March 19, 2013

  Actual Average Record
Temperature  
Mean Temperature 18 °F -  
Max Temperature 27 °F 46 °F 78 °F (2012)
Min Temperature 10 °F 28 °F 3 °F (1951)
Degree Days  
Heating Degree Days 46    
Moisture  
Dew Point 9 °F    
Average Humidity 66    
Maximum Humidity 80    
Minimum Humidity 54    
Precipitation  
Precipitation 0.00 in - - ()
Sea Level Pressure  
Sea Level Pressure 30.09 in    
Wind  
Wind Speed 17 mph (WNW)    
Max Wind Speed 22 mph    
Max Gust Speed 30 mph    
Visibility 10 miles    
Events      
Averages and records for this station are not official NWS values.
T = Trace of Precipitation, MM = Missing Value Source: NWS Daily Summary

Daily Weather History Graph

Daily Weather History Graph

Search for Another Location

Airport:

Trip Planner

Search our weather history database for the weather conditions in past years. The results will help you decide how hot, cold, wet, or windy it might be!

Date:

Astronomy

Mar. 19, 2013 Rise Set
Actual Time 7:12 AM CDT 7:19 PM CDT
Civil Twilight 6:44 AM CDT 7:47 PM CDT
Nautical Twilight 6:12 AM CDT 8:20 PM CDT
Astronomical Twilight 5:38 AM CDT 8:53 PM CDT
Moon 11:57 AM CDT (3/19) 2:12 AM CDT (3/19)
Length of Visible Light 13h 02m
Length of Day
12h 06m
Waxing Crescent, 50% of the Moon is Illuminated
Mar 19
Waxing Crescent
Mar 19
First Quarter
Mar 27
Full
Apr 2
Last Quarter
Apr 10
New

Hourly Weather History & Observations

Time (CDT) Temp. Windchill Dew Point Humidity Pressure Visibility Wind Dir Wind Speed Gust Speed Precip Events Conditions
12:15 AM 15.3 °F -1.3 °F 6.8 °F 69% 29.93 in 10.0 mi WNW 18.4 mph 25.3 mph N/A   Clear
12:35 AM 15.3 °F -1.3 °F 6.8 °F 69% 29.92 in 10.0 mi WNW 18.4 mph 25.3 mph N/A   Clear
12:55 AM 15.3 °F -1.3 °F 6.8 °F 69% 29.91 in 10.0 mi WNW 18.4 mph 29.9 mph N/A   Clear
1:15 AM 15.3 °F -0.9 °F 6.4 °F 68% 29.91 in 10.0 mi WNW 17.3 mph 26.5 mph N/A   Clear
1:35 AM 14.0 °F -3.0 °F 5.9 °F 70% 29.92 in 10.0 mi WNW 18.4 mph 23.0 mph N/A   Clear
1:55 AM 14.0 °F -3.9 °F 5.9 °F 70% 29.92 in 10.0 mi WNW 20.7 mph 25.3 mph N/A   Clear
2:15 AM 13.5 °F -4.6 °F 5.0 °F 69% 29.93 in 10.0 mi WNW 20.7 mph 26.5 mph N/A   Clear
2:35 AM 12.7 °F -3.6 °F 4.8 °F 71% 29.93 in 10.0 mi WNW 16.1 mph 24.2 mph N/A   Clear
2:55 AM 12.7 °F -3.6 °F 4.6 °F 70% 29.95 in 10.0 mi WNW 16.1 mph 21.9 mph N/A   Clear
3:15 AM 12.7 °F -1.8 °F 4.5 °F 70% 29.97 in 10.0 mi West 12.7 mph 21.9 mph N/A   Clear
3:35 AM 12.7 °F -3.6 °F 4.5 °F 70% 29.98 in 10.0 mi WNW 16.1 mph 21.9 mph N/A   Clear
3:55 AM 12.7 °F -5.5 °F 4.1 °F 68% 29.98 in 10.0 mi WNW 20.7 mph 27.6 mph N/A   Clear
4:15 AM 12.7 °F -3.6 °F 4.5 °F 70% 29.98 in 10.0 mi WNW 16.1 mph 24.2 mph N/A   Clear
4:35 AM 12.7 °F -5.5 °F 4.8 °F 71% 29.98 in 10.0 mi WNW 20.7 mph 27.6 mph N/A   Clear
4:55 AM 12.7 °F -4.1 °F 5.0 °F 71% 29.99 in 10.0 mi WNW 17.3 mph 23.0 mph N/A   Clear
5:15 AM 12.7 °F -4.6 °F 5.0 °F 71% 29.99 in 10.0 mi WNW 18.4 mph 23.0 mph N/A   Clear
5:35 AM 12.7 °F -4.6 °F 5.0 °F 71% 30.00 in 10.0 mi WNW 18.4 mph 25.3 mph N/A   Clear
5:55 AM 12.7 °F -4.1 °F 5.0 °F 71% 30.01 in 10.0 mi WNW 17.3 mph 24.2 mph N/A   Clear
6:15 AM 12.7 °F -3.0 °F 5.0 °F 71% 30.01 in 10.0 mi WNW 15.0 mph 25.3 mph N/A   Clear
6:35 AM 12.7 °F -4.1 °F 5.0 °F 71% 30.01 in 10.0 mi WNW 17.3 mph 24.2 mph N/A   Clear
6:55 AM 12.7 °F -4.6 °F 5.0 °F 71% 30.01 in 10.0 mi WNW 18.4 mph 26.5 mph N/A   Clear
7:15 AM 10.4 °F -6.6 °F 2.8 °F 72% 30.03 in 10.0 mi WNW 16.1 mph 24.2 mph N/A   Clear
7:35 AM 12.6 °F -4.9 °F 4.6 °F 71% 30.05 in 10.0 mi WNW 18.4 mph 27.6 mph N/A   Clear
7:55 AM 12.7 °F -4.1 °F 4.5 °F 70% 30.05 in 10.0 mi WNW 17.3 mph 23.0 mph N/A   Clear
8:15 AM 12.7 °F -4.1 °F 4.5 °F 70% 30.05 in 10.0 mi WNW 17.3 mph 21.9 mph N/A   Clear
8:35 AM 12.7 °F -3.0 °F 4.1 °F 68% 30.06 in 10.0 mi WNW 15.0 mph 21.9 mph N/A   Clear
8:55 AM 12.7 °F -4.1 °F 3.6 °F 67% 30.07 in 10.0 mi NW 17.3 mph 26.5 mph N/A   Clear
9:15 AM 14.0 °F -3.4 °F 4.6 °F 66% 30.08 in 10.0 mi WNW 19.6 mph 24.2 mph N/A   Clear
9:35 AM 15.3 °F -2.6 °F 5.4 °F 65% 30.11 in 10.0 mi WNW 21.9 mph 29.9 mph N/A   Clear
9:55 AM 15.3 °F -1.3 °F 5.0 °F 64% 30.09 in 10.0 mi NW 18.4 mph 26.5 mph N/A   Clear
10:15 AM 15.3 °F -1.8 °F 4.6 °F 63% 30.12 in 10.0 mi WNW 19.6 mph 26.5 mph N/A   Clear
10:35 AM 15.8 °F 0.3 °F 4.8 °F 62% 30.12 in 10.0 mi WNW 16.1 mph 27.6 mph N/A   Clear
10:55 AM 17.6 °F 1.3 °F 6.4 °F 62% 30.13 in 10.0 mi WNW 19.6 mph 25.3 mph N/A   Clear
11:15 AM 17.6 °F 0.9 °F 6.6 °F 62% 30.13 in 10.0 mi WNW 20.7 mph 24.2 mph N/A   Clear
11:35 AM 17.8 °F 2.4 °F 6.4 °F 61% 30.13 in 10.0 mi WNW 17.3 mph 21.9 mph N/A   Clear
11:55 AM 19.0 °F 5.6 °F 7.2 °F 60% 30.14 in 10.0 mi WNW 13.8 mph 21.9 mph N/A   Clear
12:15 PM 19.4 °F 4.5 °F 7.3 °F 60% 30.15 in 10.0 mi WNW 17.3 mph 21.9 mph N/A   Clear
12:35 PM 20.3 °F 6.1 °F 8.2 °F 60% 30.14 in 10.0 mi WNW 16.1 mph - N/A   Clear
12:55 PM 20.3 °F 5.7 °F 8.1 °F 59% 30.15 in 10.0 mi WNW 17.3 mph 23.0 mph N/A   Clear
1:15 PM 21.0 °F 6.6 °F 8.8 °F 59% 30.15 in 10.0 mi WNW 17.3 mph 20.7 mph N/A   Clear
1:35 PM 21.6 °F 7.8 °F 9.3 °F 59% 30.14 in 10.0 mi WNW 16.1 mph 24.2 mph N/A   Clear
1:55 PM 22.6 °F 10.7 °F 10.0 °F 59% 30.15 in 10.0 mi West 12.7 mph 19.6 mph N/A   Clear
2:15 PM 22.6 °F 9.6 °F 9.7 °F 58% 30.15 in 10.0 mi WNW 15.0 mph 21.9 mph N/A   Clear
2:35 PM 25.2 °F 12.4 °F 11.1 °F 55% 30.15 in 10.0 mi WNW 16.1 mph 21.9 mph N/A   Clear
2:55 PM 25.2 °F 12.4 °F 10.9 °F 55% 30.15 in 10.0 mi WNW 16.1 mph 21.9 mph N/A   Clear
3:15 PM 27.5 °F 16.3 °F 13.1 °F 55% 30.16 in 10.0 mi West 13.8 mph 20.7 mph N/A   Clear
3:35 PM 27.5 °F 14.6 °F 12.9 °F 54% 30.16 in 10.0 mi WNW 18.4 mph 24.2 mph N/A   Clear
3:55 PM 27.5 °F 15.0 °F 13.8 °F 56% 30.16 in 10.0 mi West 17.3 mph 24.2 mph N/A   Clear
4:15 PM 27.5 °F 15.4 °F 14.0 °F 57% 30.16 in 10.0 mi West 16.1 mph 23.0 mph N/A   Clear
4:35 PM 27.5 °F 15.4 °F 14.7 °F 59% 30.16 in 10.0 mi WNW 16.1 mph 21.9 mph N/A   Clear
4:55 PM 27.5 °F 16.3 °F 13.8 °F 56% 30.16 in 10.0 mi WNW 13.8 mph 20.7 mph N/A   Clear
5:15 PM 27.5 °F 15.9 °F 14.2 °F 57% 30.16 in 10.0 mi West 15.0 mph 20.7 mph N/A   Clear
5:35 PM 27.5 °F 15.9 °F 14.9 °F 59% 30.16 in 10.0 mi West 15.0 mph 24.2 mph N/A   Clear
5:55 PM 27.5 °F 15.4 °F 15.6 °F 61% 30.16 in 10.0 mi WNW 16.1 mph 23.0 mph N/A   Clear
6:15 PM 27.5 °F 15.4 °F 15.1 °F 60% 30.16 in 10.0 mi WNW 16.1 mph - N/A   Clear
6:35 PM 27.5 °F 15.9 °F 16.0 °F 62% 30.17 in 10.0 mi WNW 15.0 mph 18.4 mph N/A   Clear
6:55 PM 27.3 °F 16.6 °F 16.5 °F 64% 30.17 in 10.0 mi WNW 12.7 mph - N/A   Clear
7:15 PM 25.2 °F 15.1 °F 15.4 °F 67% 30.18 in 10.0 mi WNW 10.4 mph - N/A   Clear
7:35 PM 25.2 °F 14.4 °F 16.7 °F 70% 30.18 in 10.0 mi NW 11.5 mph - N/A   Scattered Clouds
7:55 PM 24.6 °F 14.4 °F 16.3 °F 71% 30.19 in 10.0 mi NW 10.4 mph - N/A   Scattered Clouds
8:15 PM 23.9 °F 12.9 °F 14.9 °F 69% 30.19 in 10.0 mi NNW 11.5 mph 19.6 mph N/A   Scattered Clouds
8:35 PM 23.5 °F 12.4 °F 14.7 °F 69% 30.18 in 10.0 mi NW 11.5 mph - N/A   Scattered Clouds
8:55 PM 22.6 °F 12.6 °F 14.5 °F 71% 30.18 in 10.0 mi NW 9.2 mph - N/A   Scattered Clouds
9:15 PM 22.6 °F 11.9 °F 14.7 °F 72% 30.18 in 10.0 mi NW 10.4 mph - N/A   Scattered Clouds
9:35 PM 22.6 °F 10.1 °F 15.4 °F 74% 30.19 in 10.0 mi NW 13.8 mph 17.3 mph N/A   Scattered Clouds
9:55 PM 22.6 °F 11.9 °F 16.3 °F 77% 30.18 in 10.0 mi NW 10.4 mph 19.6 mph N/A   Clear
10:15 PM 22.6 °F 11.9 °F 17.4 °F 80% 30.18 in 10.0 mi NW 10.4 mph 17.3 mph N/A   Clear
10:35 PM 21.2 °F 6.8 °F 12.4 °F 69% 30.19 in 10.0 mi NW 17.3 mph 25.3 mph N/A   Scattered Clouds
10:55 PM 20.3 °F 7.2 °F 12.0 °F 70% 30.20 in 10.0 mi NW 13.8 mph 20.7 mph N/A   Scattered Clouds
11:15 PM 18.5 °F 3.3 °F 9.1 °F 67% 30.20 in 10.0 mi NW 17.3 mph 24.2 mph N/A   Clear
11:35 PM 17.6 °F 2.7 °F 9.1 °F 69% 30.20 in 10.0 mi NW 16.1 mph 21.9 mph N/A   Clear
11:55 PM 17.6 °F 3.7 °F 8.2 °F 67% 30.21 in 10.0 mi NW 13.8 mph 19.6 mph N/A   Clear